Starlink 5594

operational
NORAD ID: 55742 Int'l Des: 2023-028 Owner: SPXS Country: US Constellation: starlink
LEOCIRCULAR

About Starlink 5594

Description loading...

Live Position

Loading 3D Globe...

Upcoming Passes

Altitude History

Altitude vs Time

uPlot chart will show altitude changes over time

Two-Line Element Set

1 55742U 23028B 25259.89337399 .00000806 00000-0 75354-4 0 9994
2 55742 70.0006 322.8018 0003269 269.1858 90.8927 14.98332843140006
Epoch: Sep 16, 2025 • Age: 28 hours

Current Status

Altitude 588.9 km
Velocity 7.57 km/s
Sub-Earth Point -50.02°S, 142.34°E
Launch Date Mar 3, 2023
Age 2.5 years
Type internet

Technical Details

Classification Payload
Mass 305.00 kg
Dry Mass 290.00 kg
Total Mass 305.00 kg
Length 0.20 m
Diameter 2.80 m
Span 9.00 m
Shape Box + pan
Manufacturer SPXS
Bus Type Starlink
Phase Status In Orbit
Owner/State SPXS/US

Large Constellations

Loading constellations...